Location: ???????
(55.7027°N, 37.3832°E)
Time: 10:48:51
(UTC+00:00)

ATLAS 5 CENTAUR R/B - Pass Details

Date: 14 April 2026
Orbit: 361 x 1064 km, 63.3° (Epoch: 10 May)

Event Time Altitude Azimuth Distance (km) Brightness Sun altitude
Rises 21:32:02 0° 307° (NW) 2,541 5.2 -24.6°
Reaches altitude 10° 21:33:59 10° 305° (NW) 1,745 4.3 -24.6°
Enters shadow 21:36:37 43° 290° (WNW) 809 2.2 -24.6°
